BEARDSLEY LAKE (BRD)

Elevation: 3398' · STANISLAUS R basin · Operator: US Bureau of Reclamation

Provisional data, subject to change.
Query executed Saturday at 22:44:44   clock

Select a sensor type for a plot of data.
Note: Reservoir Flows are daily averages.

Earlier

Date STORAGE    RES CHG    OUTFLOW    PPT INC   
 AF   AF   CFS   INCHES  
09/26/2014 42252 52 199 0.37
09/27/2014 42358 106 199 0.02
09/28/2014 42443 85 200 0.41
09/29/2014 42343 -100 199 0.02
09/30/2014 42326 -17 199 0.00
10/01/2014 42300 -26 268 0.00
10/02/2014 42374 74 299 0.00
10/03/2014 42438 64 299 0.00
10/04/2014 42374 -64 300 0.00
10/05/2014 42216 -158 300 0.00
10/06/2014 42231 15 351 0.00
10/07/2014 41916 -315 400 0.00
10/08/2014 41922 6 400 0.00
10/09/2014 41685 -237 400 0.00
10/10/2014 41407 -278 399 0.00
10/11/2014 41015 -392 398 0.00
10/12/2014 40608 -407 397 0.00
10/13/2014 40442 -166 392 0.00
10/14/2014 40187 -255 397 0.00
10/15/2014 39923 -264 400 0.00
10/16/2014 39721 -202 399 0.00
10/17/2014 39086 -635 398 0.00
10/18/2014 38702 -384 396 0.00
10/19/2014 38385 -317 395 0.00
10/20/2014 38185 -200 166 0.00
10/21/2014 38119 -66 60 0.00
10/22/2014 38053 -66 60 0.00
10/23/2014 37981 -72 63 0.00
10/24/2014 37901 -80 64 0.00
10/25/2014 -- -- -- --

Later | Latest

Warning! This data is preliminary and subject to revision.

Show BRD Map | Plot BRD Data | 1 Month BRD Data | Real-Time BRD Data | BRD Info